Flight Track Log - Related Links

Times and Time Zones

All times are in EDT time to prevent confusion due to time zone crossing. See the SWA1796 flight status page for this flight to view local times or setup timezone preferences in your user account.

Time Position Orientation Groundspeed Altitude Reporting Facility
EDT Latitude Longitude Course Direction KTS MPH feet Rate Location/Type
Sat 09:09:43 PM 29.6633 -95.2953 335° Northwest 138 159 1,600  Level Houston Center
Sat 09:09:49 PM 29.6675 -95.2936 19° North 153 176 1,700 2,597 Climbing Houston Center
Sat 09:10:50 PM 29.7231 -95.2994 355° North 201 231 4,500 3,393 Climbing Houston Center
Sat 09:11:51 PM 29.7933 -95.3147 349° North 249 287 8,600 3,223 Climbing Houston Center
Sat 09:12:51 PM 29.8711 -95.3306 350° North 275 316 11,000 2,628 Climbing Houston Center
Sat 09:13:52 PM 29.9694 -95.3542 348° North 355 409 13,900 2,852 Climbing Houston Center
Sat 09:14:53 PM 30.0678 -95.3922 341° North 371 427 16,800 2,754 Climbing Houston Center
Sat 09:15:54 PM 30.1686 -95.4308 342° North 381 438 19,500 2,410 Climbing Houston Center
Sat 09:16:55 PM 30.2753 -95.4714 342° North 398 458 21,700 2,164 Climbing Houston Center
Sat 09:17:56 PM 30.3858 -95.5139 342° North 415 478 23,900 2,033 Climbing Houston Center
Sat 09:18:56 PM 30.5014 -95.5572 342° North 431 496 25,800 2,083 Climbing Houston Center
Sat 09:19:57 PM 30.6200 -95.6028 342° North 446 513 28,100 2,410 Climbing Houston Center
Sat 09:20:58 PM 30.7419 -95.6506 341° North 437 503 30,700 1,918 Climbing Houston Center
Sat 09:21:59 PM 30.8539 -95.6936 342° North 425 489 32,000 645 Climbing Houston Center
Sat 09:22:59 PM 30.9647 -95.7372 341° North 420 483 32,000  Level Houston Center
Sat 09:24:00 PM 31.0772 -95.7803 342° North 422 486 32,000  Level Houston Center
Sat 09:25:01 PM 31.1881 -95.8233 342° North 420 483 32,000  Level Houston Center
Sat 09:26:02 PM 31.2983 -95.8658 342° North 416 479 32,000  Level Houston Center
Sat 09:27:02 PM 31.4078 -95.9147 339° North 419 482 32,000 -893 Level Houston Center
Sat 09:28:03 PM 31.5158 -95.9628 339° North 415 478 30,200 -2,410 Descending Houston Center
Sat 09:29:04 PM 31.6264 -96.0097 340° North 420 483 27,100 -3,089 Descending Houston Center
Sat 09:29:44 PM 31.7153 -96.0506 339° North 416 479 25,000 -2,880 Descending Fort Worth Center
Sat 09:30:44 PM 31.8203 -96.0956 340° North 411 473 22,300 -2,650 Descending Fort Worth Center
Sat 09:31:44 PM 31.9231 -96.1431 339° North 406 467 19,700 -2,350 Descending Fort Worth Center
Sat 09:32:44 PM 32.0194 -96.1833 340° North 389 448 17,600 -2,350 Descending Fort Worth Center
Sat 09:33:44 PM 32.1158 -96.2286 338° Northwest 374 430 15,000 -2,550 Descending Fort Worth Center
Sat 09:34:44 PM 32.2122 -96.2692 340° North 367 422 12,500 -2,150 Descending Fort Worth Center
Sat 09:35:44 PM 32.3025 -96.3097 339° North 362 417 10,700 -1,250 Descending Fort Worth Center
Sat 09:36:44 PM 32.3800 -96.3458 339° North 315 362 10,000 -950 Descending Fort Worth Center
Sat 09:37:44 PM 32.4431 -96.3917 328° Northwest 280 322 8,800 -1,350 Descending Fort Worth Center
Sat 09:38:44 PM 32.4958 -96.4528 316° Northwest 264 304 7,300 -1,300 Descending Fort Worth Center
Sat 09:39:44 PM 32.5483 -96.5139 316° Northwest 256 295 6,200 -1,400 Descending Fort Worth Center
Sat 09:40:44 PM 32.5967 -96.5700 316° Northwest 250 288 4,500 -1,450 Descending Fort Worth Center
Sat 09:41:44 PM 32.6472 -96.6289 316° Northwest 250 288 3,300 -1,046 Descending Fort Worth Center
Sat 09:42:33 PM 32.6833 -96.6667 319° Northwest 245 282 2,600 -385 Descending Dallas / Fort Worth TRACON
Sat 09:43:33 PM 32.7333 -96.7167 320° Northwest 203 234 2,600 -50 Level Dallas / Fort Worth TRACON
Sat 09:44:33 PM 32.7667 -96.7667 308° West 170 196 2,500 -500 Descending Dallas / Fort Worth TRACON
Sat 09:45:33 PM 32.8000 -96.8000 320° Northwest 144 166 1,600 -800 Descending Dallas / Fort Worth TRACON
Sat 09:46:33 PM 32.8167 -96.8333 301° West 135 155 900 -700 Descending Dallas / Fort Worth TRACON
Sat 09:50:00 PM 32.8333 -96.8500 140° Southeast  Level FlightAware Approximate

Login

Don't have an account? Register now (free) for customized features, flight alerts, and more!